Blytheville Muni Airport, AR

9:26 AM CDT on April 30, 2017 (GMT -0500)
Blytheville Municipal

Weather History for KHKA - December, 2012

Change the Weather History Date:

Saturday, December 29, 2012

  Actual Average Record
Temperature  
Mean Temperature 31 °F -  
Max Temperature 35 °F 45 °F 72 °F (1984)
Min Temperature 27 °F 30 °F 6 °F (1983)
Degree Days  
Heating Degree Days 34    
Moisture  
Dew Point 27 °F    
Average Humidity 82    
Maximum Humidity 92    
Minimum Humidity 73    
Precipitation  
Precipitation 0.00 in - - ()
Sea Level Pressure  
Sea Level Pressure 30.19 in    
Wind  
Wind Speed 13 mph (NW)    
Max Wind Speed 21 mph    
Max Gust Speed 28 mph    
Visibility 10 miles    
Events Snow    
Averages and records for this station are not official NWS values.
T = Trace of Precipitation, MM = Missing Value Source: NWS Daily Summary

Daily Weather History Graph

Daily Weather History Graph

Search for Another Location

Airport or City:

Trip Planner

Search our weather history database for the weather conditions in past years. The results will help you decide how hot, cold, wet, or windy it might be!

Date:

Astronomy

Dec. 29, 2012 Rise Set
Actual Time 7:09 AM CST 4:54 PM CST
Civil Twilight 6:40 AM CST 5:22 PM CST
Nautical Twilight 6:08 AM CST 5:54 PM CST
Astronomical Twilight 5:37 AM CST 6:25 PM CST
Moon 6:23 PM CST (12/29) 7:45 AM CST (12/29)
Length of Visible Light 10h 42m
Length of Day
9h 45m
Full, 98% of the Moon is Illuminated
Dec 29
Full
Jan 4
Last Quarter
Jan 11
New
Jan 18
First Quarter
Jan 26
Full

Hourly Weather History & Observations

Time (CST) Temp. Windchill Dew Point Humidity Pressure Visibility Wind Dir Wind Speed Gust Speed Precip Events Conditions
12:53 AM 35.1 °F 26.4 °F 33.1 °F 92% 29.96 in 10.0 mi NW 12.7 mph - N/A   Overcast
1:22 AM 35.6 °F 26.6 °F 32.0 °F 87% 29.96 in 10.0 mi WNW 13.8 mph - N/A   Overcast
1:33 AM 35.6 °F 27.1 °F 32.0 °F 87% 29.96 in 10.0 mi WNW 12.7 mph - N/A   Overcast
1:41 AM 35.6 °F 26.2 °F 32.0 °F 87% 29.97 in 10.0 mi WNW 15.0 mph - N/A   Overcast
1:53 AM 35.1 °F 26.4 °F 32.0 °F 89% 29.98 in 10.0 mi NW 12.7 mph - N/A   Overcast
2:53 AM 34.0 °F 25.0 °F 30.9 °F 89% 30.01 in 10.0 mi WNW 12.7 mph - N/A   Overcast
3:53 AM 34.0 °F 26.0 °F 30.9 °F 89% 30.02 in 10.0 mi WNW 10.4 mph - N/A   Overcast
4:53 AM 34.0 °F 26.0 °F 30.9 °F 89% 30.04 in 10.0 mi WNW 10.4 mph - N/A   Overcast
5:53 AM 34.0 °F 25.5 °F 28.9 °F 82% 30.06 in 10.0 mi WNW 11.5 mph 19.6 mph N/A   Overcast
6:53 AM 33.1 °F 23.0 °F 28.0 °F 82% 30.09 in 10.0 mi WNW 15.0 mph 21.9 mph N/A   Overcast
7:53 AM 33.1 °F 22.6 °F 27.0 °F 78% 30.12 in 10.0 mi WNW 16.1 mph - N/A   Overcast
8:53 AM 32.0 °F 19.8 °F 25.0 °F 75% 30.16 in 10.0 mi NW 20.7 mph 26.5 mph N/A   Overcast
9:53 AM 32.0 °F 19.8 °F 24.1 °F 73% 30.19 in 10.0 mi NW 20.7 mph 27.6 mph N/A   Overcast
10:53 AM 32.0 °F 20.5 °F 26.1 °F 79% 30.21 in 7.0 mi NW 18.4 mph 21.9 mph 0.00 in Snow Light Snow
11:53 AM 32.0 °F 20.5 °F 25.0 °F 75% 30.22 in 10.0 mi NW 18.4 mph 24.2 mph 0.00 in   Overcast
12:53 PM 32.0 °F 20.1 °F 25.0 °F 75% 30.22 in 10.0 mi NW 19.6 mph - N/A   Overcast
1:53 PM 32.0 °F 21.2 °F 24.1 °F 73% 30.24 in 10.0 mi WNW 16.1 mph 24.2 mph N/A   Overcast
2:53 PM 32.0 °F 21.2 °F 24.1 °F 73% 30.27 in 10.0 mi NW 16.1 mph - N/A   Overcast
3:53 PM 32.0 °F 22.5 °F 24.1 °F 73% 30.30 in 10.0 mi NW 12.7 mph - N/A   Overcast
4:53 PM 32.0 °F 22.1 °F 25.0 °F 75% 30.33 in 10.0 mi NNW 13.8 mph - N/A   Overcast
5:12 PM 30.2 °F 21.9 °F 24.8 °F 80% 30.33 in 10.0 mi NNW 9.2 mph - N/A   Scattered Clouds
5:53 PM 30.0 °F 24.1 °F 25.0 °F 82% 30.35 in 10.0 mi NW 5.8 mph - N/A   Clear
6:53 PM 28.0 °F 22.8 °F 24.1 °F 85% 30.38 in 10.0 mi North 4.6 mph - N/A   Clear
7:53 PM 27.0 °F 21.6 °F 23.0 °F 85% 30.40 in 9.0 mi NNW 4.6 mph - N/A   Clear
8:53 PM 28.9 °F - 24.1 °F 82% 30.41 in 9.0 mi Calm Calm - N/A   Clear
9:53 PM 28.0 °F 24.2 °F 24.1 °F 85% 30.43 in 7.0 mi SW 3.5 mph - N/A   Clear
10:53 PM 27.0 °F 23.0 °F 24.1 °F 89% 30.43 in 7.0 mi South 3.5 mph - N/A   Clear